When you browse on this site, cookies collect data to enhance your experience and personalize the content and advertising you see.
Visit our Privacy Policy to learn more. By continuing to use the site, you agree to this use of cookies and data.
  • In Latvia
  • List of Countries
  • For 7 days
  • Water Temperature
  • Satellite Maps
  • Weather Map
  • Weather Widgets
  • user-avatar
    Login

    Hourly Weather Salzburg

    Today, 21 June, Friday

    Time Temperature Precipitation Wind Pressure Humidity
    00:00 +9°C° 0.4 mm 0 mps 627 mmHg 97%
    01:00 +9°C° 0.4 mm 0 mps 627 mmHg 97%
    02:00 +9°C° 0.6 mm 0 mps 628 mmHg 97%
    03:00 +9°C° 0.6 mm 0 mps 628 mmHg 97%
    04:00 +10°C° 0.6 mm 1 mps 628 mmHg 97%
    05:00 +10°C° 0.1 mm 0 mps 628 mmHg 95%
    06:00 +10°C° 0.1 mm 0 mps 628 mmHg 94%
    07:00 +11°C° 0.1 mm 0 mps 628 mmHg 92%
    08:00 +12°C° 0.6 mm 0 mps 629 mmHg 88%
    09:00 +14°C° 0.6 mm 1 mps 629 mmHg 84%
    10:00 +15°C° 0.6 mm 1 mps 630 mmHg 80%
    11:00 +16°C° 0.7 mm 1 mps 630 mmHg 78%
    12:00 +16°C° 0.7 mm 1 mps 630 mmHg 76%
    13:00 +18°C° 0.7 mm 1 mps 630 mmHg 73%
    14:00 +18°C° 0.9 mm 1 mps 630 mmHg 76%
    15:00 +16°C° 0.9 mm 1 mps 629 mmHg 79%
    16:00 +16°C° 0.9 mm 1 mps 629 mmHg 82%
    17:00 +15°C° 1.3 mm 1 mps 629 mmHg 86%
    18:00 +14°C° 1.3 mm 1 mps 629 mmHg 91%
    19:00 +11°C° 1.3 mm 0 mps 628 mmHg 96%
    20:00 +11°C° 2 mm 0 mps 628 mmHg 97%
    21:00 +10°C° 2 mm 0 mps 629 mmHg 97%
    22:00 +10°C° 2 mm 0 mps 629 mmHg 98%
    23:00 +10°C° 0.4 mm 0 mps 629 mmHg 98%

    Tomorrow, 22 June, Saturday

    Time Temperature Precipitation Wind Pressure Humidity
    00:00 +10°C° 0.4 mm 0 mps 629 mmHg 98%
    01:00 +9°C° 0.4 mm 0 mps 628 mmHg 98%
    02:00 +9°C° 0 mm 0 mps 628 mmHg 97%
    03:00 +9°C° 0 mm 0 mps 628 mmHg 97%
    04:00 +8°C° 0 mm 0 mps 627 mmHg 97%
    05:00 +9°C° 0 mm 0 mps 628 mmHg 96%
    06:00 +10°C° 0 mm 0 mps 628 mmHg 95%
    07:00 +11°C° 0 mm 0 mps 628 mmHg 93%
    08:00 +13°C° 0.2 mm 0 mps 629 mmHg 86%
    09:00 +16°C° 0.2 mm 1 mps 629 mmHg 79%
    10:00 +19°C° 0.2 mm 1 mps 630 mmHg 71%
    11:00 +18°C° 1.4 mm 1 mps 629 mmHg 76%
    12:00 +18°C° 1.4 mm 1 mps 629 mmHg 80%
    13:00 +16°C° 1.4 mm 1 mps 629 mmHg 85%
    14:00 +16°C° 1.5 mm 1 mps 628 mmHg 87%
    15:00 +16°C° 1.5 mm 1 mps 628 mmHg 89%
    16:00 +14°C° 1.5 mm 0 mps 628 mmHg 90%
    17:00 +15°C° 1.1 mm 1 mps 627 mmHg 91%
    18:00 +14°C° 1.1 mm 1 mps 627 mmHg 92%
    19:00 +13°C° 1.1 mm 1 mps 627 mmHg 93%
    20:00 +12°C° 1.1 mm 1 mps 627 mmHg 95%
    21:00 +12°C° 1.1 mm 1 mps 627 mmHg 96%
    22:00 +11°C° 1.1 mm 1 mps 626 mmHg 98%
    23:00 +10°C° 0.9 mm 1 mps 627 mmHg 98%

    Day after tomorrow, 23 June, Sunday

    Time Temperature Precipitation Wind Pressure Humidity
    00:00 +10°C° 0.9 mm 1 mps 627 mmHg 98%
    01:00 +9°C° 0.9 mm 0 mps 627 mmHg 98%
    02:00 +9°C° 0.1 mm 0 mps 627 mmHg 97%
    03:00 +9°C° 0.1 mm 0 mps 626 mmHg 97%
    04:00 +8°C° 0.1 mm 0 mps 626 mmHg 97%
    05:00 +9°C° 0.2 mm 0 mps 627 mmHg 97%
    06:00 +9°C° 0.2 mm 0 mps 627 mmHg 97%
    07:00 +10°C° 0.2 mm 0 mps 627 mmHg 96%
    08:00 +10°C° 0.3 mm 0 mps 628 mmHg 96%
    09:00 +11°C° 0.3 mm 1 mps 628 mmHg 95%
    10:00 +12°C° 0.3 mm 1 mps 628 mmHg 94%
    11:00 +12°C° 0.2 mm 1 mps 628 mmHg 93%
    12:00 +12°C° 0.2 mm 1 mps 629 mmHg 91%
    13:00 +13°C° 0.2 mm 1 mps 629 mmHg 90%
    14:00 +13°C° 0.2 mm 1 mps 629 mmHg 87%
    15:00 +14°C° 0.2 mm 1 mps 629 mmHg 84%
    16:00 +14°C° 0.2 mm 1 mps 629 mmHg 82%
    17:00 +13°C° 0.1 mm 1 mps 629 mmHg 87%
    18:00 +12°C° 0.1 mm 1 mps 629 mmHg 92%
    19:00 +10°C° 0.1 mm 0 mps 629 mmHg 97%
    20:00 +10°C° 0 mm 0 mps 629 mmHg 97%
    21:00 +9°C° 0 mm 0 mps 629 mmHg 97%
    22:00 +8°C° 0 mm 0 mps 629 mmHg 97%
    23:00 +8°C° 0 mm 0 mps 630 mmHg 97%

    24 June, Monday

    Time Temperature Precipitation Wind Pressure Humidity
    00:00 +8°C° 0 mm 0 mps 630 mmHg 97%
    01:00 +8°C° 0 mm 1 mps 630 mmHg 97%
    02:00 +8°C° 0 mm 1 mps 630 mmHg 97%
    03:00 +8°C° 0 mm 1 mps 630 mmHg 96%
    04:00 +8°C° 0 mm 1 mps 629 mmHg 96%
    05:00 +10°C° 0 mm 1 mps 630 mmHg 93%
    06:00 +10°C° 0 mm 0 mps 631 mmHg 90%
    07:00 +12°C° 0 mm 0 mps 632 mmHg 87%
    08:00 +14°C° 0 mm 0 mps 633 mmHg 77%
    09:00 +19°C° 0 mm 1 mps 634 mmHg 67%
    10:00 +21°C° 0 mm 1 mps 635 mmHg 57%
    11:00 +21°C° 0 mm 1 mps 635 mmHg 56%
    12:00 +21°C° 0 mm 2 mps 635 mmHg 55%
    13:00 +23°C° 0 mm 2 mps 635 mmHg 54%
    14:00 +21°C° 0.2 mm 2 mps 635 mmHg 56%
    15:00 +21°C° 0.2 mm 2 mps 634 mmHg 59%
    16:00 +21°C° 0.2 mm 2 mps 634 mmHg 62%
    17:00 +19°C° 0.3 mm 2 mps 634 mmHg 72%
    18:00 +19°C° 0.3 mm 1 mps 634 mmHg 82%
    19:00 +18°C° 0.3 mm 1 mps 634 mmHg 91%
    20:00 +15°C° 0.1 mm 1 mps 633 mmHg 93%
    21:00 +14°C° 0.1 mm 1 mps 633 mmHg 94%
    22:00 +12°C° 0.1 mm 0 mps 633 mmHg 96%
    23:00 +12°C° 0 mm 1 mps 633 mmHg 96%

    25 June, Tuesday

    Time Temperature Precipitation Wind Pressure Humidity
    00:00 +12°C° 0 mm 1 mps 633 mmHg 96%
    01:00 +12°C° 0 mm 1 mps 633 mmHg 95%
    02:00 +11°C° 0 mm 1 mps 633 mmHg 95%
    03:00 +11°C° 0 mm 1 mps 632 mmHg 95%
    04:00 +11°C° 0 mm 1 mps 632 mmHg 95%
    05:00 +12°C° 0 mm 1 mps 633 mmHg 92%
    06:00 +13°C° 0 mm 0 mps 634 mmHg 89%
    07:00 +15°C° 0 mm 0 mps 634 mmHg 86%
    08:00 +17°C° 0 mm 0 mps 635 mmHg 75%
    09:00 +22°C° 0 mm 1 mps 636 mmHg 63%
    10:00 +24°C° 0 mm 1 mps 637 mmHg 52%
    11:00 +25°C° 0 mm 1 mps 637 mmHg 49%
    12:00 +25°C° 0 mm 1 mps 637 mmHg 46%
    13:00 +26°C° 0 mm 2 mps 637 mmHg 44%
    14:00 +25°C° 0.2 mm 2 mps 637 mmHg 50%
    15:00 +24°C° 0.2 mm 2 mps 636 mmHg 55%
    16:00 +24°C° 0.2 mm 2 mps 636 mmHg 61%
    17:00 +21°C° 0.3 mm 2 mps 636 mmHg 71%
    18:00 +21°C° 0.3 mm 1 mps 635 mmHg 81%
    19:00 +19°C° 0.3 mm 1 mps 635 mmHg 91%
    20:00 +18°C° 0.1 mm 1 mps 635 mmHg 92%
    21:00 +14°C° 0.1 mm 0 mps 635 mmHg 93%
    22:00 +13°C° 0.1 mm 0 mps 634 mmHg 94%
    23:00 +12°C° 0 mm 0 mps 634 mmHg 94%

    26 June, Wednesday

    Time Temperature Precipitation Wind Pressure Humidity
    00:00 +13°C° 0 mm 1 mps 634 mmHg 94%
    01:00 +13°C° 0 mm 1 mps 633 mmHg 94%
    02:00 +12°C° 0 mm 1 mps 633 mmHg 94%
    03:00 +12°C° 0 mm 1 mps 633 mmHg 93%
    04:00 +12°C° 0 mm 1 mps 633 mmHg 93%
    05:00 +13°C° 0 mm 1 mps 633 mmHg 91%
    06:00 +14°C° 0 mm 0 mps 634 mmHg 88%
    07:00 +16°C° 0 mm 0 mps 635 mmHg 86%
    08:00 +18°C° 0 mm 0 mps 635 mmHg 74%
    09:00 +22°C° 0 mm 1 mps 636 mmHg 63%
    10:00 +24°C° 0 mm 1 mps 637 mmHg 52%
    11:00 +25°C° 0 mm 1 mps 636 mmHg 51%
    12:00 +25°C° 0 mm 2 mps 636 mmHg 51%
    13:00 +25°C° 0 mm 2 mps 636 mmHg 50%
    14:00 +25°C° 0.3 mm 2 mps 636 mmHg 56%
    15:00 +24°C° 0.3 mm 2 mps 635 mmHg 61%
    16:00 +23°C° 0.3 mm 2 mps 635 mmHg 66%
    17:00 +21°C° 0.5 mm 2 mps 634 mmHg 74%
    18:00 +21°C° 0.5 mm 1 mps 634 mmHg 81%
    19:00 +19°C° 0.5 mm 1 mps 634 mmHg 89%
    20:00 +18°C° 0 mm 1 mps 633 mmHg 91%
    21:00 +15°C° 0 mm 1 mps 633 mmHg 92%
    22:00 +14°C° 0 mm 1 mps 633 mmHg 93%
    23:00 +13°C° 0 mm 1 mps 633 mmHg 94%
    Show more